| time (UTC) | temp F | wind direction | speed MPH | gust MPH | rain 1hr in | rain 24hr in | rain mn in | humidity % | barometer mb |
| 20260504045917 | 76 | 174 | 10.0 | 14.0 | 0.00 | 0.00 | 0.00 | 47 | 1007.1 |
| 20260504044917 | 76 | 162 | 9.0 | 13.0 | 0.00 | 0.00 | 0.00 | 45 | 1007.2 |
| 20260504043917 | 77 | 165 | 11.0 | 15.0 | 0.00 | 0.00 | 0.00 | 44 | 1007.4 |
| 20260504042916 | 77 | 158 | 10.0 | 14.0 | 0.00 | 0.00 | 0.00 | 43 | 1007.2 |
| 20260504041917 | 77 | 164 | 10.0 | 15.0 | 0.00 | 0.00 | 0.00 | 41 | 1006.9 |
| 20260504040917 | 77 | 175 | 9.0 | 14.0 | 0.00 | 0.00 | 0.00 | 40 | 1006.8 |
| 20260504035917 | 78 | 164 | 10.0 | 14.0 | 0.00 | 0.00 | 0.00 | 39 | 1006.5 |
| 20260504034917 | 78 | 164 | 10.0 | 14.0 | 0.00 | 0.00 | 0.00 | 38 | 1006.5 |
| 20260504033917 | 78 | 160 | 12.0 | 15.0 | 0.00 | 0.00 | 0.00 | 37 | 1006.3 |
| 20260504032916 | 79 | 165 | 12.0 | 17.0 | 0.00 | 0.00 | 0.00 | 36 | 1006.1 |
| 20260504031917 | 79 | 167 | 9.0 | 15.0 | 0.00 | 0.00 | 0.00 | 35 | 1006.1 |
| 20260504030917 | 79 | 163 | 10.0 | 14.0 | 0.00 | 0.00 | 0.00 | 35 | 1006.0 |
| 20260504025917 | 80 | 160 | 13.0 | 17.0 | 0.00 | 0.00 | 0.00 | 34 | 1005.9 |
| 20260504024917 | 80 | 152 | 15.0 | 18.0 | 0.00 | 0.00 | 0.00 | 33 | 1005.4 |
| 20260504023917 | 81 | 150 | 14.0 | 18.0 | 0.00 | 0.00 | 0.00 | 31 | 1005.2 |
| 20260504022917 | 82 | 147 | 14.0 | 18.0 | 0.00 | 0.00 | 0.00 | 30 | 1005.0 |
| 20260504021917 | 82 | 147 | 12.0 | 17.0 | 0.00 | 0.00 | 0.00 | 29 | 1004.7 |
| 20260504020919 | 83 | 151 | 15.0 | 18.0 | 0.00 | 0.00 | 0.00 | 28 | 1004.3 |
| 20260504015917 | 84 | 150 | 11.0 | 15.0 | 0.00 | 0.00 | 0.00 | 26 | 1004.4 |
| 20260504014917 | 85 | 153 | 14.0 | 17.0 | 0.00 | 0.00 | 0.00 | 22 | 1004.1 |
| 20260504013916 | 86 | 153 | 14.0 | 18.0 | 0.00 | 0.00 | 0.00 | 22 | 1004.0 |
| 20260504012916 | 87 | 150 | 13.0 | 17.0 | 0.00 | 0.00 | 0.00 | 22 | 1004.0 |
| 20260504011917 | 87 | 152 | 14.0 | 18.0 | 0.00 | 0.00 | 0.00 | 22 | 1003.8 |
| 20260504010917 | 88 | 152 | 15.0 | 18.0 | 0.00 | 0.00 | 0.00 | 21 | 1003.8 |
| 20260504010317 | 89 | 161 | 14.0 | 18.0 | 0.00 | 0.00 | 0.00 | 20 | 1003.6 |
| 20260504005317 | 89 | 152 | 14.0 | 18.0 | 0.00 | 0.00 | 0.00 | 20 | 1003.5 |
| 20260504004317 | 90 | 155 | 12.0 | 17.0 | 0.00 | 0.00 | 0.00 | 19 | 1003.5 |
| 20260504003317 | 92 | 147 | 15.0 | 18.0 | 0.00 | 0.00 | 0.00 | 17 | 1003.2 |
| 20260504002317 | 93 | 172 | 11.0 | 17.0 | 0.00 | 0.00 | 0.00 | 17 | 1003.4 |
| 20260504001317 | 94 | 166 | 14.0 | 18.0 | 0.00 | 0.00 | 0.00 | 16 | 1003.5 |
| 20260504000317 | 94 | 157 | 13.0 | 19.0 | 0.00 | 0.00 | 0.00 | 16 | 1003.4 |
| 20260503235317 | 95 | 148 | 12.0 | 17.0 | 0.00 | 0.00 | 0.00 | 16 | 1003.3 |
| 20260503234317 | 95 | 153 | 15.0 | 18.0 | 0.00 | 0.00 | 0.00 | 16 | 1003.5 |
| 20260503233317 | 95 | 160 | 14.0 | 18.0 | 0.00 | 0.00 | 0.00 | 16 | 1003.6 |
| 20260503232316 | 96 | 158 | 14.0 | 18.0 | 0.00 | 0.00 | 0.00 | 15 | 1003.5 |
| 20260503231316 | 96 | 154 | 16.0 | 18.0 | 0.00 | 0.00 | 0.00 | 16 | 1003.5 |
| 20260503230317 | 96 | 157 | 12.0 | 18.0 | 0.00 | 0.00 | 0.00 | 15 | 1003.6 |
| 20260503225317 | 96 | 153 | 13.0 | 17.0 | 0.00 | 0.00 | 0.00 | 15 | 1003.6 |
| 20260503224317 | 97 | 166 | 14.0 | 17.0 | 0.00 | 0.00 | 0.00 | 15 | 1003.9 |
| 20260503223316 | 97 | 170 | 13.0 | 17.0 | 0.00 | 0.00 | 0.00 | 15 | 1003.9 |
| 20260503222316 | 97 | 171 | 11.0 | 16.0 | 0.00 | 0.00 | 0.00 | 15 | 1003.9 |
| 20260503221316 | 97 | 161 | 15.0 | 19.0 | 0.00 | 0.00 | 0.00 | 15 | 1004.0 |
| 20260503220317 | 98 | 180 | 14.0 | 18.0 | 0.00 | 0.00 | 0.00 | 16 | 1004.2 |
| 20260503215317 | 97 | 167 | 12.0 | 16.0 | 0.00 | 0.00 | 0.00 | 15 | 1004.4 |
| 20260503214216 | 98 | 170 | 14.0 | 17.0 | 0.00 | 0.00 | 0.00 | 15 | 1004.5 |
| 20260503213217 | 98 | 161 | 11.0 | 15.0 | 0.00 | 0.00 | 0.00 | 16 | 1004.6 |
| 20260503212217 | 97 | 190 | 13.0 | 18.0 | 0.00 | 0.00 | 0.00 | 16 | 1004.9 |
| 20260503211217 | 98 | 175 | 13.0 | 16.0 | 0.00 | 0.00 | 0.00 | 16 | 1005.0 |
| 20260503210217 | 97 | 171 | 12.0 | 17.0 | 0.00 | 0.00 | 0.00 | 17 | 1005.2 |
| 20260503204216 | 97 | 160 | 11.0 | 15.0 | 0.00 | 0.00 | 0.00 | 17 | 1005.6 |
| 20260503203217 | 98 | 164 | 12.0 | 16.0 | 0.00 | 0.00 | 0.00 | 17 | 1005.7 |
| 20260503202217 | 97 | 176 | 13.0 | 17.0 | 0.00 | 0.00 | 0.00 | 17 | 1005.7 |
| 20260503201216 | 97 | 179 | 12.0 | 15.0 | 0.00 | 0.00 | 0.00 | 17 | 1005.9 |
| 20260503200216 | 96 | 159 | 13.0 | 17.0 | 0.00 | 0.00 | 0.00 | 17 | 1006.0 |
| 20260503195217 | 96 | 157 | 14.0 | 17.0 | 0.00 | 0.00 | 0.00 | 18 | 1006.1 |
| 20260503194217 | 96 | 183 | 14.0 | 17.0 | 0.00 | 0.00 | 0.00 | 19 | 1006.2 |
| 20260503193217 | 96 | 175 | 12.0 | 17.0 | 0.00 | 0.00 | 0.00 | 18 | 1006.4 |
| 20260503192216 | 95 | 170 | 11.0 | 16.0 | 0.00 | 0.00 | 0.00 | 20 | 1006.5 |
| 20260503191216 | 95 | 164 | 9.0 | 13.0 | 0.00 | 0.00 | 0.00 | 21 | 1006.7 |
| 20260503190217 | 95 | 161 | 10.0 | 14.0 | 0.00 | 0.00 | 0.00 | 21 | 1006.7 |
| 20260503185217 | 94 | 168 | 11.0 | 15.0 | 0.00 | 0.00 | 0.00 | 20 | 1006.9 |
| 20260503184216 | 93 | 150 | 11.0 | 13.0 | 0.00 | 0.00 | 0.00 | 20 | 1007.0 |
| 20260503183216 | 94 | 156 | 12.0 | 15.0 | 0.00 | 0.00 | 0.00 | 20 | 1007.0 |
| 20260503182216 | 93 | 153 | 13.0 | 17.0 | 0.00 | 0.00 | 0.00 | 20 | 1007.2 |
| 20260503181216 | 92 | 146 | 14.0 | 18.0 | 0.00 | 0.00 | 0.00 | 20 | 1007.3 |
| 20260503180216 | 92 | 158 | 14.0 | 18.0 | 0.00 | 0.00 | 0.00 | 20 | 1007.4 |
| 20260503175217 | 91 | 156 | 13.0 | 16.0 | 0.00 | 0.00 | 0.00 | 20 | 1007.4 |
| 20260503174216 | 91 | 145 | 14.0 | 17.0 | 0.00 | 0.00 | 0.00 | 20 | 1007.4 |
| 20260503173217 | 90 | 152 | 13.0 | 17.0 | 0.00 | 0.00 | 0.00 | 21 | 1007.5 |
| 20260503172217 | 90 | 154 | 13.0 | 17.0 | 0.00 | 0.00 | 0.00 | 22 | 1007.6 |
| 20260503171217 | 89 | 156 | 11.0 | 15.0 | 0.00 | 0.00 | 0.00 | 22 | 1007.7 |
| 20260503170217 | 88 | 150 | 13.0 | 18.0 | 0.00 | 0.00 | 0.00 | 23 | 1007.8 |
| 20260503160217 | 85 | 155 | 10.0 | 14.0 | 0.00 | 0.00 | 0.00 | 20 | 1007.9 |
| 20260503150216 | 82 | 148 | 9.0 | 12.0 | 0.00 | 0.00 | 0.00 | 21 | 1007.5 |
| 20260503131217 | 72 | 177 | 3.0 | 4.0 | 0.00 | 0.00 | 0.00 | 25 | 1007.0 |
| 20260503130217 | 72 | 176 | 4.0 | 4.0 | 0.00 | 0.00 | 0.00 | 25 | 1006.8 |
| 20260503120217 | 72 | 170 | 2.0 | 2.0 | 0.00 | 0.00 | 0.00 | 23 | 1006.6 |
| 20260503110216 | 72 | 0.0 | 0.0 | 0.00 | 0.00 | 0.00 | 25 | 1006.4 | |
| 20260503100117 | 75 | 0.0 | 0.0 | 0.00 | 0.00 | 0.00 | 25 | 1006.9 | |
| 20260503081217 | 80 | 149 | 6.0 | 6.0 | 0.00 | 0.00 | 0.00 | 20 | 1007.2 |
| 20260503080216 | 80 | 145 | 5.0 | 7.0 | 0.00 | 0.00 | 0.00 | 20 | 1007.2 |
| 20260503072217 | 78 | 142 | 5.0 | 6.0 | 0.00 | 0.00 | 0.00 | 24 | 1007.5 |
| 20260503070216 | 77 | 142 | 5.0 | 6.0 | 0.00 | 0.00 | 0.00 | 26 | 1007.7 |